Location: Kawakawa
(35.3830°S, 174.0670°E)
Time: 18:30:03
(UTC+12:00)

ISS - Pass Details

Date: 08 July 2022
Orbit: 412 x 420 km, 51.6° (Epoch: 13 August)

Event Time Altitude Azimuth Distance (km) Brightness Sun altitude
Rises 19:39:29 0° 248° (WSW) 2,373 1.0 -26.7°
Reaches altitude 10° 19:42:24 10° 276° (W) 1,498 0.0 -27.3°
Maximum altitude 19:44:07 13° 307° (NW) 1,300 -0.6 -27.7°
Enters shadow 19:45:17 12° 329° (NNW) 1,387 -0.7 -27.9°
